| time (UTC) | temp C | wind direction | speed KPH | gust KPH | rain 1hr cm | rain 24hr cm | rain mn cm | humidity % | barometer mb |
| 20260506221620 | 9 | 238 | 0.0 | 0.0 | 0.00 | 0.86 | 0.84 | 1 | 1007.9 |
| 20260506220005 | 9 | 11 | 0.0 | 0.0 | 0.00 | 0.86 | 0.84 | 1 | 1007.9 |
| 20260506214502 | 10 | 315 | 0.0 | 0.0 | 0.00 | 0.86 | 0.84 | 1 | 1008.0 |
| 20260506213057 | 10 | 26 | 0.0 | 6.4 | 0.00 | 0.86 | 0.84 | 1 | 1007.8 |
| 20260506211553 | 10 | 228 | 0.0 | 0.0 | 0.00 | 0.86 | 0.84 | 1 | 1007.3 |
| 20260506210058 | 10 | 242 | 0.0 | 0.0 | 0.00 | 0.86 | 0.84 | 1 | 1007.1 |
| 20260506204553 | 10 | 265 | 0.0 | 0.0 | 0.00 | 0.86 | 0.84 | 1 | 1006.9 |
| 20260506203053 | 10 | 52 | 0.0 | 0.0 | 0.03 | 1.07 | 0.84 | 1 | 1006.6 |
| 20260506201607 | 10 | 17 | 0.0 | 0.0 | 0.05 | 1.07 | 0.84 | 1 | 1005.9 |
| 20260506200035 | 10 | 34 | 0.0 | 0.0 | 0.05 | 1.07 | 0.84 | 1 | 1006.0 |
| 20260506194540 | 10 | 60 | 0.0 | 0.0 | 0.05 | 1.07 | 0.84 | 1 | 1005.9 |
| 20260506193033 | 10 | 229 | 0.0 | 0.0 | 0.03 | 1.04 | 0.81 | 1 | 1005.9 |
| 20260506191526 | 11 | 38 | 0.0 | 0.0 | 0.00 | 1.02 | 0.79 | 1 | 1005.5 |
| 20260506190054 | 11 | 40 | 0.0 | 0.0 | 0.00 | 1.02 | 0.79 | 1 | 1005.2 |
| 20260506184553 | 11 | 24 | 0.0 | 1.6 | 0.00 | 1.02 | 0.79 | 1 | 1005.1 |
| 20260506183046 | 12 | 19 | 0.0 | 0.0 | 0.03 | 1.02 | 0.79 | 1 | 1005.0 |
| 20260506181541 | 13 | 250 | 0.0 | 0.0 | 0.03 | 1.02 | 0.79 | 1 | 1004.4 |
| 20260506180044 | 13 | 225 | 0.0 | 0.0 | 0.03 | 1.02 | 0.79 | 1 | 1004.3 |
| 20260506174540 | 15 | 213 | 0.0 | 1.6 | 0.03 | 1.02 | 0.79 | 1 | 1003.8 |
| 20260506173043 | 15 | 234 | 0.0 | 0.0 | 0.00 | 1.04 | 0.76 | 1 | 1003.6 |
| 20260506171543 | 15 | 155 | 0.0 | 0.0 | 0.00 | 1.04 | 0.76 | 1 | 1003.6 |
| 20260506170001 | 15 | 155 | 0.0 | 0.0 | 0.00 | 1.04 | 0.76 | 1 | 1003.7 |
| 20260506164556 | 15 | 254 | 0.0 | 0.0 | 0.00 | 1.04 | 0.76 | 1 | 1003.7 |
| 20260506163102 | 14 | 24 | 0.0 | 0.0 | 0.03 | 1.04 | 0.76 | 1 | 1003.8 |
| 20260506161548 | 14 | 221 | 0.0 | 1.6 | 0.08 | 1.04 | 0.76 | 1 | 1003.6 |
| 20260506160059 | 14 | 78 | 0.0 | 0.0 | 0.10 | 1.04 | 0.76 | 1 | 1003.9 |
| 20260506154600 | 14 | 78 | 0.0 | 0.0 | 0.13 | 1.04 | 0.76 | 1 | 1004.0 |
| 20260506153049 | 14 | 78 | 0.0 | 0.0 | 0.13 | 1.02 | 0.71 | 1 | 1003.8 |
| 20260506151544 | 14 | 78 | 0.0 | 0.0 | 0.08 | 0.97 | 0.69 | 1 | 1004.2 |
| 20260506150032 | 14 | 78 | 0.0 | 0.0 | 0.08 | 0.94 | 0.66 | 1 | 1003.9 |
| 20260506144527 | 13 | 78 | 0.0 | 0.0 | 0.10 | 0.94 | 0.66 | 1 | 1003.7 |
| 20260506143023 | 13 | 78 | 0.0 | 0.0 | 0.13 | 0.91 | 0.64 | 1 | 1003.9 |
| 20260506141518 | 13 | 78 | 0.0 | 0.0 | 0.20 | 0.89 | 0.61 | 1 | 1003.9 |
| 20260506140042 | 13 | 78 | 0.0 | 0.0 | 0.25 | 0.89 | 0.61 | 1 | 1004.0 |
| 20260506134530 | 13 | 78 | 0.0 | 0.0 | 0.30 | 0.84 | 0.56 | 1 | 1004.2 |
| 20260506133028 | 13 | 78 | 0.0 | 0.0 | 0.33 | 0.79 | 0.51 | 1 | 1004.5 |
| 20260506131524 | 13 | 76 | 0.0 | 0.0 | 0.28 | 0.69 | 0.41 | 1 | 1004.9 |
| 20260506130016 | 12 | 76 | 0.0 | 0.0 | 0.25 | 0.66 | 0.38 | 1 | 1005.1 |
| 20260506124512 | 12 | 76 | 0.0 | 0.0 | 0.15 | 0.53 | 0.25 | 1 | 1005.0 |
| 20260506123008 | 12 | 77 | 0.0 | 0.0 | 0.10 | 0.48 | 0.20 | 1 | 1004.7 |
| 20260506121504 | 12 | 76 | 0.0 | 0.0 | 0.05 | 0.41 | 0.13 | 1 | 1004.7 |
| 20260506120107 | 12 | 76 | 0.0 | 0.0 | 0.05 | 0.41 | 0.13 | 1 | 1004.6 |
| 20260506114558 | 12 | 76 | 0.0 | 0.0 | 0.05 | 0.41 | 0.13 | 1 | 1005.0 |
| 20260506113043 | 11 | 76 | 0.0 | 0.0 | 0.05 | 0.46 | 0.10 | 1 | 1005.0 |
| 20260506111542 | 11 | 76 | 0.0 | 0.0 | 0.05 | 0.43 | 0.08 | 1 | 1005.0 |
| 20260506110022 | 11 | 76 | 0.0 | 0.0 | 0.05 | 0.43 | 0.08 | 1 | 1005.2 |
| 20260506104517 | 11 | 76 | 0.0 | 0.0 | 0.05 | 0.43 | 0.08 | 1 | 1005.3 |
| 20260506103020 | 11 | 76 | 0.0 | 0.0 | 0.03 | 0.41 | 0.05 | 1 | 1005.0 |
| 20260506101509 | 11 | 77 | 0.0 | 0.0 | 0.05 | 0.41 | 0.05 | 1 | 1004.9 |
| 20260506100016 | 11 | 77 | 0.0 | 0.0 | 0.03 | 0.38 | 0.03 | 1 | 1004.5 |
| 20260506094512 | 12 | 77 | 0.0 | 0.0 | 0.03 | 0.38 | 0.03 | 1 | 1004.7 |
| 20260506093012 | 12 | 77 | 0.0 | 0.0 | 0.03 | 0.38 | 0.03 | 1 | 1004.6 |
| 20260506091503 | 12 | 77 | 0.0 | 0.0 | 0.03 | 0.38 | 0.03 | 1 | 1004.8 |
| 20260506090128 | 12 | 77 | 0.0 | 0.0 | 0.00 | 0.36 | 0.00 | 1 | 1004.9 |
| 20260506084554 | 12 | 77 | 0.0 | 0.0 | 0.00 | 0.36 | 0.00 | 1 | 1005.2 |
| 20260506083048 | 12 | 71 | 0.0 | 0.0 | 0.00 | 0.36 | 0.00 | 1 | 1005.4 |
| 20260506081544 | 12 | 71 | 0.0 | 0.0 | 0.00 | 0.36 | 0.00 | 1 | 1005.1 |
| 20260506073029 | 12 | 71 | 0.0 | 0.0 | 0.00 | 0.36 | 0.00 | 1 | 1005.0 |
| 20260506071526 | 12 | 71 | 0.0 | 0.0 | 0.00 | 0.36 | 0.00 | 1 | 1005.1 |
| 20260506061509 | 12 | 46 | 0.0 | 0.0 | 0.00 | 0.36 | 0.00 | 1 | 1005.7 |
| 20260506044547 | 13 | 15 | 0.0 | 0.0 | 0.00 | 0.36 | 0.00 | 1 | 1007.0 |
| 20260506043050 | 13 | 15 | 0.0 | 0.0 | 0.00 | 0.36 | 0.36 | 1 | 1006.9 |
| 20260506041545 | 13 | 15 | 0.0 | 0.0 | 0.00 | 0.36 | 0.36 | 1 | 1006.9 |
| 20260506040030 | 14 | 15 | 0.0 | 0.0 | 0.00 | 0.36 | 0.36 | 1 | 1007.0 |
| 20260506034525 | 14 | 13 | 0.0 | 0.0 | 0.00 | 0.36 | 0.36 | 1 | 1007.4 |
| 20260506033020 | 14 | 20 | 0.0 | 0.0 | 0.00 | 0.36 | 0.36 | 1 | 1007.6 |
| 20260506031519 | 15 | 28 | 0.0 | 0.0 | 0.00 | 0.36 | 0.36 | 1 | 1007.2 |
| 20260506030020 | 15 | 22 | 0.0 | 0.0 | 0.00 | 0.36 | 0.36 | 1 | 1007.2 |
| 20260506024517 | 15 | 56 | 0.0 | 1.6 | 0.00 | 0.36 | 0.36 | 1 | 1007.1 |
| 20260506023011 | 15 | 14 | 0.0 | 1.6 | 0.00 | 0.36 | 0.36 | 1 | 1007.0 |
| 20260506021507 | 16 | 348 | 0.0 | 0.0 | 0.00 | 0.36 | 0.36 | 1 | 1006.6 |
| 20260506020013 | 16 | 344 | 0.0 | 0.0 | 0.00 | 0.36 | 0.36 | 1 | 1006.4 |
| 20260506014508 | 16 | 302 | 0.0 | 0.0 | 0.00 | 0.36 | 0.36 | 1 | 1006.3 |
| 20260506013005 | 16 | 302 | 0.0 | 0.0 | 0.00 | 0.36 | 0.36 | 1 | 1006.2 |
| 20260506011601 | 16 | 26 | 0.0 | 0.0 | 0.00 | 0.36 | 0.36 | 1 | 1005.9 |
| 20260506010003 | 16 | 176 | 0.0 | 0.0 | 0.00 | 0.36 | 0.36 | 1 | 1005.8 |
| 20260506004600 | 16 | 176 | 0.0 | 0.0 | 0.00 | 0.36 | 0.36 | 1 | 1005.4 |
| 20260506003058 | 16 | 176 | 0.0 | 0.0 | 0.00 | 0.36 | 0.36 | 1 | 1005.0 |
| 20260506001602 | 16 | 176 | 0.0 | 0.0 | 0.00 | 0.36 | 0.36 | 1 | 1004.9 |
| 20260506000006 | 16 | 176 | 0.0 | 0.0 | 0.00 | 0.36 | 0.36 | 1 | 1004.8 |
| 20260505234502 | 17 | 176 | 0.0 | 0.0 | 0.00 | 0.36 | 0.36 | 1 | 1004.8 |
| 20260505233058 | 17 | 176 | 0.0 | 0.0 | 0.00 | 0.36 | 0.36 | 1 | 1004.7 |
| 20260505231558 | 17 | 176 | 0.0 | 0.0 | 0.03 | 0.36 | 0.36 | 1 | 1004.7 |
| 20260505230031 | 18 | 176 | 0.0 | 0.0 | 0.03 | 0.36 | 0.36 | 1 | 1004.7 |
| 20260505224515 | 18 | 176 | 0.0 | 0.0 | 0.03 | 0.36 | 0.36 | 1 | 1004.6 |
| 20260505223013 | 18 | 185 | 0.0 | 0.0 | 0.03 | 0.36 | 0.36 | 1 | 1004.2 |